Location: Norton
(51.3000°N, 0.8167°E)
Time: 17:30:13
(UTC+00:00)

Meteor 1-13 Rocket - Pass Details

Date: 03 March 2021
Orbit: 830 x 913 km, 81.3° (Epoch: 13 April)

Event Time Altitude Azimuth Distance (km) Brightness Sun altitude
Rises 19:34:11 0° 347° (NNW) 3,561 7.8 -18.4°
Reaches altitude 10° 19:36:40 10° 348° (NNW) 2,613 7.1 -18.7°
Maximum altitude 19:42:40 88° 77° (ENE) 914 4.3 -19.7°
Drops below altitude 10° 19:48:33 10° 169° (SSE) 2,562 6.4 -20.5°
Enters shadow 19:48:37 10° 169° (SSE) 2,586 6.5 -20.6°
